sat.trackr.live / text

‹ back to catalog

UNKNOWN

NORAD 81838

UNKNOWN UNKNOWN UNKNOWN

§ Identity

Operator
Country
Launch date
Launch site
Launch vehicle
Mass (kg)
RCS (m²)

External: N2YO · Heavens-Above

§ Orbital elements

Epoch: 2026-09-07T02:41:44.071296Z

Period
98.64 min
Inclination
67.7587°
Eccentricity
0.0034300
Mean motion
14.59912764 rev/d
Perigee alt
669.2 km
Apogee alt
717.7 km
Semi-major
7,071.6 km
B*
4.7061e-4
RAAN
282.7768°
Arg perigee
112.9294°
Mean anomaly
280.9681°
Rev number
67,247

§ Raw data

UNKNOWN1 81838U          26250.11231564  .00002186  00000+0  47061-3 0  99932 81838  67.7587 282.7768 0034300 112.9294 280.9681 14.59912764672476

JSON: /api/v1/satellites/81838 · /tle

For live sub-satellite position, see the globe view (requires WebGL).

§ Visibility from observer

Set your observer location to see the next 7 days of passes ≥ 10°. The values pass through the URL so the page stays shareable.

No JS? Fill the form by hand. The geolocation button needs JavaScript.